This demonstration page uses our WeatherBlox Daily Observations layout. Learn more.

40.92945, -100.16068

Hourly Observations for August 27, 2017

Temp ( °F °C ) Dew Point ( °F °C ) Humidity (%) Winds ( mph kmh ) Pressure ( in mb ) Visibility ( mi km ) Precip ( " mm )
12:15 am 00:15 Clear 72 22.3 68 19.8 86 86 ESE 6 9 29.94 1014 10 16.09344 0 0
12:35 am 00:35 Clear 72 22 67 19.5 86 86 ESE 5 7 29.94 1014 10 16.09344 0 0
12:55 am 00:55 Clear 72 22 67 19.2 84 84 SE 7 11 29.94 1014 10 16.09344 0 0
1:15 am 01:15 Clear 71 21.7 66 18.8 84 84 ESE 6 9 29.94 1014 10 16.09344 0 0
1:35 am 01:35 Clear 70 21.1 65 18.5 85 85 SE 5 7 29.94 1014 10 16.09344 0 0
1:55 am 01:55 Clear 69 20.5 65 18.1 86 86 E 5 7 29.94 1014 10 16.09344 0 0
2:15 am 02:15 Clear 68 19.8 65 18.3 91 91 NE 8 13 29.97 1015 10 16.09344 0 0
2:35 am 02:35 Clear 68 19.9 65 18.2 90 90 E 5 7 29.97 1015 10 16.09344 0 0
2:55 am 02:55 Clear 67 19.6 64 18 91 91 S 3 6 29.97 1015 10 16.09344 0 0
3:15 am 03:15 Clear 67 19.5 64 18 91 91 ESE 3 6 29.97 1015 10 16.09344 0 0
3:35 am 03:35 Clear 67 19.5 64 18 91 91 ENE 7 11 29.97 1015 10 16.09344 0 0
3:55 am 03:55 Clear 67 19.7 65 18.2 91 91 NE 8 13 29.97 1015 10 16.09344 0 0
4:15 am 04:15 Mostly Cloudy with Nearby Thunderstorms 64 17.8 58 14.5 81 81 N 29 46 30.06 1018 10 16.09344 0 0
4:35 am 04:35 Cloudy with Heavy Thunderstorms 63 17.1 60 15.3 89 89 N 10 17 30.06 1018 3 4.828032 0.07 1.778
4:55 am 04:55 Mostly Cloudy with Nearby Thunderstorms 64 17.7 60 15.4 86 86 ENE 20 31 30.03 1017 10 16.09344 0.08 2.032
5:15 am 05:15 Mostly Cloudy 64 17.6 59 15.2 86 86 E 13 20 29.97 1015 10 16.09344 0 0
5:35 am 05:35 Partly Cloudy 64 17.9 59 15.2 84 84 ESE 6 9 30 1016 10 16.09344 0 0
5:55 am 05:55 Clear 64 17.6 60 15.6 88 88 SSW 9 15 29.97 1015 10 16.09344 0 0
6:15 am 06:15 Mostly Cloudy with Nearby Thunderstorms 64 17.5 60 15.7 89 89 S 5 7 30 1016 10 16.09344 0.02 0.508
6:35 am 06:35 Partly Cloudy 63 17.1 60 15.5 90 90 S 6 9 30 1016 10 16.09344 0.03 0.762
6:55 am 06:55 Mostly Cloudy 63 17 60 15.6 92 92 Calm 30.03 1017 10 16.09344 0.03 0.762
7:15 am 07:15 Partly Cloudy with Nearby Thunderstorms 62 16.7 60 15.3 92 92 Calm 30.03 1017 10 16.09344 0 0
7:35 am 07:35 Sunny 62 16.6 59 15.2 92 92 Calm 30.06 1018 10 16.09344 0 0
7:55 am 07:55 Partly Cloudy 62 16.5 59 15.2 92 92 N 3 6 30.06 1018 10 16.09344 0 0
8:15 am 08:15 Partly Cloudy 62 16.7 60 15.6 93 93 NNW 5 7 30.06 1018 10 16.09344 0 0
8:35 am 08:35 Sunny 64 18 62 16.4 90 90 NW 6 9 30.03 1017 10 16.09344 0 0
8:55 am 08:55 Sunny 65 18.5 62 16.4 88 88 WNW 9 15 30.03 1017 10 16.09344 0 0
9:15 am 09:15 Sunny 67 19.3 62 16.5 84 84 NNW 9 15 30.06 1018 10 16.09344 0 0
9:35 am 09:35 Sunny 68 19.9 62 16.9 83 83 NW 8 13 30.06 1018 10 16.09344 0 0
9:55 am 09:55 Sunny 69 20.5 63 17 80 80 NNW 9 15 30.09 1019 10 16.09344 0 0
10:15 am 10:15 Sunny 71 21.4 63 17.4 78 78 NNW 9 15 30.06 1018 10 16.09344 0 0
10:35 am 10:35 Sunny 71 21.8 63 17.2 75 75 NNW 7 11 30.06 1018 10 16.09344 0 0
10:55 am 10:55 Sunny 72 22.3 64 17.5 74 74 N 7 11 30.06 1018 10 16.09344 0 0
11:15 am 11:15 Sunny 73 23 64 17.5 71 71 NNE 6 9 30.09 1019 10 16.09344 0 0
11:35 am 11:35 Sunny 75 23.9 64 17.6 68 68 NE 7 11 30.06 1018 10 16.09344 0 0
11:55 am 11:55 Sunny 76 24.6 63 17.4 64 64 NE 7 11 30.06 1018 10 16.09344 0 0
12:15 pm 12:15 Sunny 77 25.1 63 17 61 61 NE 9 15 30.03 1017 10 16.09344 0 0
12:35 pm 12:35 Sunny 78 25.4 64 17.5 62 62 ENE 6 9 30.03 1017 10 16.09344 0 0
12:55 pm 12:55 Sunny 78 25.7 64 17.6 61 61 ENE 8 13 30.03 1017 10 16.09344 0 0
1:15 pm 13:15 Sunny 79 26.1 64 17.6 60 60 NE 6 9 30.03 1017 10 16.09344 0 0
1:35 pm 13:35 Sunny 80 26.5 64 17.5 58 58 ENE 7 11 30.03 1017 10 16.09344 0 0
1:55 pm 13:55 Partly Cloudy 80 26.5 64 18 60 60 NE 10 17 30.03 1017 10 16.09344 0 0
2:15 pm 14:15 Partly Cloudy 80 26.4 64 18 60 60 NE 5 7 30.03 1017 10 16.09344 0 0
2:35 pm 14:35 Sunny 81 27.1 63 17.3 55 55 NNE 6 9 30.03 1017 10 16.09344 0 0
2:55 pm 14:55 Sunny 81 27.4 64 17.6 55 55 NNE 8 13 30.03 1017 10 16.09344 0 0
3:15 pm 15:15 Sunny 82 27.5 62 16.4 51 51 N 5 7 30 1016 10 16.09344 0 0
3:35 pm 15:35 Partly Cloudy 81 27.4 62 16.6 52 52 Calm 30 1016 10 16.09344 0 0
3:55 pm 15:55 Partly Cloudy 81 27.3 63 17.1 54 54 NNE 8 13 30 1016 10 16.09344 0 0
4:15 pm 16:15 Sunny 82 28 63 17.2 52 52 N 8 13 30 1016 10 16.09344 0 0
4:35 pm 16:35 Partly Cloudy 81 27.4 62 16.9 53 53 NE 7 11 30 1016 10 16.09344 0 0
4:55 pm 16:55 Partly Cloudy 82 27.6 60 15.8 49 49 NNE 10 17 30 1016 10 16.09344 0 0
5:15 pm 17:15 Sunny 82 27.5 60 15.3 47 47 NE 8 13 30 1016 10 16.09344 0 0
5:35 pm 17:35 Partly Cloudy 81 27.4 60 15.5 48 48 NE 8 13 30 1016 10 16.09344 0 0
5:55 pm 17:55 Partly Cloudy 81 27.2 62 16.5 52 52 NE 7 11 30 1016 10 16.09344 0 0
6:15 pm 18:15 Mostly Cloudy 80 26.8 61 16.2 52 52 NE 6 9 30 1016 10 16.09344 0 0
6:35 pm 18:35 Partly Cloudy 79 26.1 61 16.2 54 54 NE 8 13 30 1016 10 16.09344 0 0
6:55 pm 18:55 Sunny 78 25.7 62 16.8 58 58 ENE 7 11 30 1016 10 16.09344 0 0
7:15 pm 19:15 Sunny 77 25.1 62 16.8 60 60 ENE 6 9 30 1016 10 16.09344 0 0
7:35 pm 19:35 Sunny 76 24.2 63 17.1 65 65 NE 5 7 30.03 1017 10 16.09344 0 0
7:55 pm 19:55 Sunny 74 23.3 62 16.8 67 67 NE 9 15 30.03 1017 10 16.09344 0 0
8:15 pm 20:15 Sunny 72 22.2 61 16.2 69 69 NE 6 9 30.06 1018 10 16.09344 0 0
8:35 pm 20:35 Clear 70 21.2 62 16.4 74 74 ENE 5 7 30.09 1019 10 16.09344 0 0
8:55 pm 20:55 Clear 69 20.6 62 16.6 78 78 ENE 6 9 30.09 1019 10 16.09344 0 0
9:15 pm 21:15 Clear 68 19.8 62 16.5 81 81 ENE 6 9 30.09 1019 10 16.09344 0 0
9:35 pm 21:35 Clear 68 19.8 62 16.5 81 81 ENE 3 6 30.09 1019 10 16.09344 0 0
9:55 pm 21:55 Clear 67 19.2 61 16 82 82 ENE 3 6 30.09 1019 10 16.09344 0 0
10:15 pm 22:15 Clear 66 18.8 61 16.2 85 85 ENE 3 6 30.12 1020 10 16.09344 0 0
10:35 pm 22:35 Clear 65 18.2 60 15.5 84 84 ENE 5 7 30.15 1021 10 16.09344 0 0
10:55 pm 22:55 Clear 64 17.7 59 15.2 85 85 Calm 30.15 1021 10 16.09344 0 0
11:15 pm 23:15 Clear 62 16.9 58 14.6 86 86 Calm 30.15 1021 10 16.09344 0 0
11:35 pm 23:35 Clear 61 16.3 58 14.2 87 87 W 3 6 30.15 1021 10 16.09344 0 0
11:55 pm 23:55 Clear 60 15.5 57 13.9 90 90 WNW 3 6 30.15 1021 10 16.09344 0 0

Powered by AerisWeather